www.pogodaiklimat.ru

Погода и климат >> Архив погоды >> Бразилия >> Мараньян >> Сан-Луис


ПОГОДА в Сан-Луисе

  • Прогноз погоды в Сан-Луисе
  • Монитор погоды в Сан-Луисе

АРХИВ ПОГОДЫ в Сан-Луисе

Время (UTC), дата Ветер
(напр.,м/с)
 
Видим.   Явления Облачность Т
(С)
Тd
(С)
f
(%)
Тe
(С)
Тes
(С)
Комфортность P
(гПа)
Po
(гПа)
Тmin
(С)
Tmax
(С)
R
(мм)
R24
(мм)
S
(см)
22 13.06 З 1
{3}
н/о н/о +25.0 +24.3 96 +35 +35 очень
душно
1013.4 1007.1 0.2
23 13.06 З 1
{2}
н/о н/о +25.0 +24.3 96 +35 +35 очень
душно
1014.4 1008.0
00 14.06 СЗ 1
{2}
н/о н/о +24.7 +23.9 95 +34 +34 очень
душно
1014.9 1008.5
01 14.06 З 1
{2}
н/о н/о +24.6 +23.9 96 +34 +34 очень
душно
1015.1 1008.7
04 14.06 штиль 0
{1}
н/о н/о +24.2 +23.7 97 +33 +33 очень
душно
1014.4 1008.0
05 14.06 штиль 0
{1}
н/о н/о +24.1 +23.6 97 +33 +33 очень
душно
1013.7 1007.3
06 14.06 СЗ 1
{1}
н/о н/о +24.3 +23.7 96 +33 +33 очень
душно
1013.3 1006.9
07 14.06 штиль 0
{2}
н/о н/о +23.9 +23.2 96 +32 +32 очень
душно
1013.2 1006.8
08 14.06 штиль 0
{1}
н/о н/о +23.5 +22.9 96 +31 +31 очень
душно
1013.4 1007.0
09 14.06 СЗ 1
{1}
н/о н/о +24.1 +23.5 96 +32 +32 очень
душно
1013.7 1007.3
10 14.06 СЗ 1
{3}
н/о н/о +24.8 +24.2 96 +34 +34 очень
душно
1014.5 1008.1
11 14.06 СЗ 1
{3}
н/о н/о +25.7 +23.7 89 +35 +35 очень
душно
1014.8 1008.5
12 14.06 СЗ 1
{4}
н/о н/о +27.2 +23.3 79 +37 +37 очень
душно
1014.8 1008.5
13 14.06 СЗ 1
{4}
н/о н/о +27.9 +23.0 75 +37 +37 очень
душно
1014.9 1008.6
14 14.06 СЗ 2
{4}
н/о н/о +28.7 +22.8 70 +38 +38 очень
душно
1014.6 1008.3
16 14.06 СЗ 1
{4}
н/о н/о +30.1 +23.1 66 +40 +40 очень
душно
1013.3 1007.1
17 14.06 СЗ 2
{3}
н/о н/о +30.7 +22.3 61 +40 +40 очень
душно
1012.4 1006.2
18 14.06 СЗ 1
{3}
н/о н/о +31.4 +22.8 60 +41 +41 опасность
перегрева
1011.8 1005.6
19 14.06 З 1
{3}
н/о н/о +27.8 +26.2 91 +42 +42 опасность
перегрева
1011.9 1005.6 5
20 14.06 штиль 0
{3}
н/о н/о +27.7 +26.7 94 +43 +43 опасность
перегрева
1012.2 1005.9 0.6
21 14.06 С 2
{4}
н/о н/о +24.8 +23.1 90 +33 +33 очень
душно
1013.1 1006.8 3
00 15.06 штиль 0
{1}
н/о н/о +25.0 +24.4 96 +35 +35 очень
душно
1014.7 1008.3
01 15.06 З 1
{1}
н/о н/о +25.2 +24.7 97 +35 +35 очень
душно
1014.9 1008.5
03 15.06 С 1
{6}
н/о н/о +23.9 +23.2 96 +32 +32 очень
душно
1015.0 1008.6 2
04 15.06 С 1
{2}
н/о н/о +24.1 +23.4 96 +32 +32 очень
душно
1014.4 1008.0
05 15.06 С 1
{2}
н/о н/о +24.1 +23.5 96 +32 +32 очень
душно
1013.4 1007.0
06 15.06 штиль 0
{2}
н/о н/о +24.1 +23.5 96 +32 +32 очень
душно
1013.1 1006.7
07 15.06 СЗ 1
{1}
н/о н/о +24.5 +23.9 96 +33 +33 очень
душно
1012.7 1006.3
08 15.06 З 1
{2}
н/о н/о +24.5 +23.9 96 +33 +33 очень
душно
1013.1 1006.7 0.2
09 15.06 З 1
{2}
н/о н/о +24.1 +23.4 96 +32 +32 очень
душно
1013.4 1007.0
12 15.06 З 2
{4}
н/о н/о +26.8 +22.2 76 +35 +35 очень
душно
1014.8 1008.5
13 15.06 З 2
{5}
н/о н/о +28.6 +22.7 70 +38 +38 очень
душно
1014.7 1008.4
14 15.06 З 2
{4}
н/о н/о +29.4 +23.3 70 +40 +40 очень
душно
1014.5 1008.2
15 15.06 СЗ 2
{4}
н/о н/о +28.7 +22.7 70 +38 +38 очень
душно
1013.9 1007.6
16 15.06 З 2
{4}
н/о н/о +29.7 +22.4 65 +39 +39 очень
душно
1013.2 1007.0
17 15.06 З 1
{3}
н/о н/о +29.1 +23.0 70 +39 +39 очень
душно
1012.7 1006.4
18 15.06 З 1
{3}
н/о н/о +30.7 +22.6 62 +40 +40 очень
душно
1012.1 1005.9
19 15.06 З 1
{4}
н/о н/о +29.2 +23.9 73 +40 +40 очень
душно
1012.2 1005.9
20 15.06 З 2
{3}
н/о н/о +28.5 +23.4 74 +39 +39 очень
душно
1012.6 1006.3
21 15.06 З 1
{3}
н/о н/о +27.1 +23.7 82 +37 +37 очень
душно
1013.1 1006.8
22 15.06 З 1
{2}
н/о н/о +26.1 +23.9 88 +36 +36 очень
душно
1013.7 1007.4
23 15.06 З 1
{2}
н/о н/о +25.4 +23.5 89 +34 +34 очень
душно
1014.2 1007.9
01 16.06 СЗ 1
{1}
н/о н/о +24.6 +23.7 95 +33 +33 очень
душно
1015.3 1008.9
02 16.06 З 1
{1}
н/о н/о +24.2 +23.3 95 +32 +32 очень
душно
1015.3 1008.9
04 16.06 З 1
{1}
н/о н/о +24.2 +23.6 96 +33 +33 очень
душно
1014.3 1007.9
05 16.06 СЗ 1
{1}
н/о н/о +24.2 +23.7 97 +33 +33 очень
душно
1013.6 1007.2
06 16.06 штиль 0
{1}
н/о н/о +24.2 +23.6 96 +33 +33 очень
душно
1013.1 1006.7
07 16.06 штиль 0
{1}
н/о н/о +24.1 +23.6 97 +33 +33 очень
душно
1013.2 1006.8
08 16.06 штиль 0
{1}
н/о н/о +24.2 +23.7 97 +33 +33 очень
душно
1013.4 1007.0
10 16.06 С 1
{2}
н/о н/о +25.1 +24.5 96 +35 +35 очень
душно
1014.2 1007.9
11 16.06 СЗ 1
{3}
н/о н/о +26.1 +24.1 89 +36 +36 очень
душно
1014.8 1008.5
13 16.06 З 1
{4}
н/о н/о +28.5 +23.4 74 +39 +39 очень
душно
1015.2 1008.9
14 16.06 З 2
{4}
н/о н/о +29.5 +23.1 69 +40 +40 очень
душно
1014.8 1008.5
15 16.06 З 1
{3}
н/о н/о +30.2 +23.1 66 +40 +40 очень
душно
1014.1 1007.9
16 16.06 З 1
{3}
н/о н/о +31.1 +23.9 66 +43 +43 опасность
перегрева
1013.5 1007.3
17 16.06 ЮЗ 1
{3}
н/о н/о +29.8 +25.4 77 +44 +44 опасность
перегрева
1012.6 1006.4
18 16.06 З 1
{4}
н/о н/о +28.3 +24.2 78 +39 +39 очень
душно
1012.8 1006.5
19 16.06 ЮЗ 2
{3}
н/о н/о +25.9 +24.0 89 +36 +36 очень
душно
1012.7 1006.4 2
21 16.06 штиль 0
{1}
н/о н/о +25.7 +24.8 95 +36 +36 очень
душно
1013.4 1007.1
22 16.06 штиль 0
{1}
н/о н/о +25.4 +24.7 96 +36 +36 очень
душно
1014.0 1007.7
00 17.06 СЗ 1
{4}
н/о н/о +25.2 +24.3 95 +35 +35 очень
душно
1015.4 1009.0 1
01 17.06 штиль 0
{4}
н/о н/о +24.7 +24.0 96 +34 +34 очень
душно
1015.4 1009.0
03 17.06 штиль 0
{1}
н/о н/о +24.2 +23.6 96 +33 +33 очень
душно
1015.2 1008.8
04 17.06 штиль 0
{1}
н/о н/о +23.9 +23.3 96 +32 +32 очень
душно
1014.7 1008.3
05 17.06 штиль 0
{1}
н/о н/о +24.4 +23.9 97 +33 +33 очень
душно
1014.0 1007.6
06 17.06 штиль 0
{1}
н/о н/о +24.5 +24.0 97 +34 +34 очень
душно
1013.7 1007.3
08 17.06 З 1
{1}
н/о н/о +24.1 +23.6 97 +33 +33 очень
душно
1013.4 1007.0
10 17.06 СЗ 1
{1}
н/о н/о +24.9 +24.4 97 +35 +35 очень
душно
1014.1 1007.7
13 17.06 З 1
{3}
н/о н/о +28.4 +23.4 74 +38 +38 очень
душно
1015.5 1009.2
14 17.06 З 1
{3}
н/о н/о +29.0 +24.0 74 +40 +40 очень
душно
1015.1 1008.8
15 17.06 З 1
{3}
н/о н/о +29.4 +23.9 72 +40 +40 очень
душно
1014.6 1008.3
16 17.06 З 1
{3}
н/о н/о +29.3 +24.1 74 +41 +41 опасность
перегрева
1013.6 1007.3
17 17.06 СЗ 1
{4}
н/о н/о +26.4 +24.8 91 +38 +38 очень
душно
1013.4 1007.1 5
19 17.06 З 1
{3}
н/о н/о +26.6 +24.5 88 +37 +37 очень
душно
1012.4 1006.1 2
20 17.06 З 1
{3}
н/о н/о +25.7 +24.1 91 +36 +36 очень
душно
1012.9 1006.6
22 17.06 штиль 0
{2}
н/о н/о +25.6 +24.5 94 +36 +36 очень
душно
1013.9 1007.6
00 18.06 З 1
{2}
н/о н/о +25.3 +24.5 95 +35 +35 очень
душно
1015.6 1009.2
01 18.06 З 1
{3}
н/о н/о +23.8 +23.2 96 +32 +32 очень
душно
1016.3 1009.9 14
02 18.06 ЮЗ 1
{2}
н/о н/о +24.0 +23.4 96 +32 +32 очень
душно
1016.1 1009.7 0.8
04 18.06 штиль 0
{1}
н/о н/о +24.1 +23.6 97 +33 +33 очень
душно
1015.2 1008.8
05 18.06 З 1
{1}
н/о н/о +24.5 +24.0 97 +34 +34 очень
душно
1014.5 1008.1
06 18.06 штиль 0
{1}
н/о н/о +24.4 +23.8 96 +33 +33 очень
душно
1014.1 1007.7
07 18.06 штиль 0
{1}
н/о н/о +24.6 +24.0 96 +34 +34 очень
душно
1014.0 1007.6
08 18.06 штиль 0
{1}
н/о н/о +24.5 +23.9 96 +33 +33 очень
душно
1014.2 1007.8
09 18.06 З 1
{1}
н/о н/о +24.2 +23.7 97 +33 +33 очень
душно
1014.7 1008.3
11 18.06 З 1
{3}
н/о н/о +26.9 +24.5 87 +38 +38 очень
душно
1015.3 1009.0
12 18.06 З 1
{3}
н/о н/о +27.8 +23.9 79 +38 +38 очень
душно
1016.0 1009.7
13 18.06 З 2
{3}
н/о н/о +28.2 +23.4 75 +38 +38 очень
душно
1016.0 1009.7
14 18.06 З 1
{4}
н/о н/о +28.9 +24.1 75 +40 +40 очень
душно
1015.5 1009.2
15 18.06 З 1
{3}
н/о н/о +29.8 +24.2 72 +42 +42 опасность
перегрева
1014.9 1008.6
16 18.06 З 1
{3}
н/о н/о +30.0 +24.3 72 +42 +42 опасность
перегрева
1013.9 1007.7
17 18.06 ЮЗ 2
{3}
н/о н/о +30.1 +24.8 73 +43 +43 опасность
перегрева
1013.0 1006.8
18 18.06 З 1
{6}
н/о н/о +27.9 +24.9 84 +40 +40 очень
душно
1012.7 1006.4 1
19 18.06 ЮЗ 2
{3}
н/о н/о +28.5 +24.5 79 +40 +40 очень
душно
1012.1 1005.8
21 18.06 ЮЗ 1
{4}
н/о н/о +26.8 +24.1 85 +37 +37 очень
душно
1013.0 1006.7
22 18.06 ЮЗ 1
{3}
н/о н/о +26.1 +23.9 88 +36 +36 очень
душно
1013.4 1007.1
23 18.06 З 1
{2}
н/о н/о +25.8 +24.0 90 +36 +36 очень
душно
1014.1 1007.8
00 19.06 З 1
{2}
н/о н/о +25.4 +24.0 92 +35 +35 очень
душно
1014.5 1008.2
01 19.06 штиль 0
{2}
н/о н/о +25.1 +24.1 94 +35 +35 очень
душно
1015.2 1008.8
02 19.06 З 1
{3}
н/о н/о +25.5 +23.9 91 +35 +35 очень
душно
1015.2 1008.9
03 19.06 З 1
{3}
н/о н/о +25.4 +23.6 90 +35 +35 очень
душно
1015.1 1008.8
04 19.06 З 1
{2}
н/о н/о +24.9 +23.6 92 +34 +34 очень
душно
1015.0 1008.6
05 19.06 З 1
{2}
н/о н/о +24.8 +23.5 92 +33 +33 очень
душно
1014.3 1007.9
06 19.06 СЗ 1
{1}
н/о н/о +24.3 +23.5 95 +33 +33 очень
душно
1014.0 1007.6
07 19.06 З 1
{1}
н/о н/о +23.7 +23.0 96 +31 +31 очень
душно
1014.0 1007.6
08 19.06 З 1
{1}
н/о н/о +23.6 +22.9 96 +31 +31 очень
душно
1014.4 1008.0
09 19.06 СЗ 1
{1}
н/о н/о +23.9 +23.2 96 +32 +32 очень
душно
1014.9 1008.5
10 19.06 СЗ 1
{1}
н/о н/о +25.2 +24.3 95 +35 +35 очень
душно
1015.4 1009.0
11 19.06 СЗ 1
{2}
н/о н/о +26.5 +23.8 85 +36 +36 очень
душно
1015.9 1009.6
12 19.06 З 1
{3}
н/о н/о +27.5 +23.7 80 +38 +38 очень
душно
1016.2 1009.9
13 19.06 СЗ 1
{3}
н/о н/о +28.4 +23.5 75 +39 +39 очень
душно
1016.4 1010.1
14 19.06 СЗ 2
{3}
н/о н/о +29.0 +22.9 70 +39 +39 очень
душно
1016.0 1009.7
15 19.06 СЗ 1
{4}
н/о н/о +30.0 +22.8 65 +40 +40 очень
душно
1015.5 1009.2
16 19.06 З 1
{4}
н/о н/о +30.5 +22.5 62 +40 +40 очень
душно
1014.5 1008.3
17 19.06 СЗ 1
{3}
н/о н/о +31.5 +22.3 58 +41 +41 опасность
перегрева
1013.8 1007.6
18 19.06 Ю 2
{3}
н/о н/о +29.6 +24.9 76 +42 +42 опасность
перегрева
1013.2 1007.0
20 19.06 ЮЗ 1
{4}
н/о н/о +28.8 +24.3 77 +40 +40 очень
душно
1013.5 1007.2
21 19.06 ЮЗ 1
{3}
н/о н/о +27.4 +24.2 83 +38 +38 очень
душно
1013.7 1007.4
22 19.06 З 1
{2}
н/о н/о +26.7 +25.1 91 +38 +38 очень
душно
1014.2 1007.9 1
00 20.06 штиль 0
{1}
н/о н/о +24.1 +23.3 95 +32 +32 очень
душно
1015.3 1008.9
01 20.06 штиль 0
{1}
н/о н/о +24.1 +23.5 96 +32 +32 очень
душно
1015.6 1009.2
02 20.06 штиль 0
{1}
н/о н/о +24.2 +23.6 96 +33 +33 очень
душно
1015.5 1009.1
03 20.06 З 1
{1}
н/о н/о +24.6 +24.0 96 +34 +34 очень
душно
1015.2 1008.8
04 20.06 штиль 0
{1}
н/о н/о +24.6 +24.1 97 +34 +34 очень
душно
1014.7 1008.3
05 20.06 штиль 0
{1}
н/о н/о +24.4 +23.8 96 +33 +33 очень
душно
1014.2 1007.8
06 20.06 штиль 0
{1}
н/о н/о +24.1 +23.5 96 +32 +32 очень
душно
1014.0 1007.6
09 20.06 штиль 0
{1}
н/о н/о +24.5 +23.9 96 +33 +33 очень
душно
1014.5 1008.1
10 20.06 СЗ 1
{1}
н/о н/о +25.4 +24.8 96 +36 +36 очень
душно
1015.2 1008.9
11 20.06 СЗ 1
{2}
н/о н/о +26.8 +26.1 96 +40 +40 очень
душно
1015.8 1009.5 0.2
12 20.06 СЗ 1
{2}
н/о н/о +27.2 +22.6 76 +36 +36 очень
душно
1015.7 1009.4
13 20.06 СЗ 2
{3}
н/о н/о +28.6 +22.5 70 +38 +38 очень
душно
1015.8 1009.5
14 20.06 З 1
{3}
н/о н/о +30.0 +23.0 66 +40 +40 очень
душно
1015.2 1008.9
15 20.06 СЗ 2
{3}
н/о н/о +30.7 +22.0 60 +39 +39 очень
душно
1014.8 1008.6
16 20.06 СЗ 1
{3}
н/о н/о +31.1 +22.3 60 +40 +40 очень
душно
1014.0 1007.8
17 20.06 СЗ 1
{5}
н/о н/о +31.7 +22.9 60 +42 +42 опасность
перегрева
1013.3 1007.1
18 20.06 Ю 1
{5}
н/о н/о +30.3 +24.8 72 +43 +43 опасность
перегрева
1012.8 1006.6
19 20.06 ЮЗ 2
{4}
н/о н/о +29.6 +24.5 74 +42 +42 опасность
перегрева
1013.0 1006.8
20 20.06 ЮЗ 2
{4}
н/о н/о +28.7 +24.8 79 +41 +41 опасность
перегрева
1013.5 1007.2
21 20.06 ЮЗ 1
{4}
н/о н/о +27.4 +24.4 84 +39 +39 очень
душно
1014.1 1007.8
22 20.06 ЮЗ 1
{2}
н/о н/о +26.8 +24.5 87 +38 +38 очень
душно
1014.5 1008.2

 

Местоположение метеостанции Сан-Луис (Мараньян, Бразилия): широта -2.53 долгота -44.22 высота над уровнем моря 58 м.

В архиве по умолчанию представлена погода в Сан-Луисе за последнюю неделю. Архивные данные за месяц целиком и за предыдущие месяцы, начиная с января 2011 года, Вы можете получить, выбрав интересующий диапазон дат из раскрывающегося списка и нажав кнопку "Ввод!".


*Определитесь, кто Вы:
робот инопланетянин человек

Внимание! Время в таблицах - всемирное. Для получения местного времени необходимо прибавить поправку, которая равна -3 ч.

Смотрите также архив погоды в соседних городах и на ближайших метеорологических станциях:

Погода в Сан-Луисе (Мараньян, Бразилия) (8 км)
Погода на Прегуике (Мараньян, Бразилия) (58 км)
Погода в Сантане (Амапа, Бразилия) (73 км)
Погода в Туриасу (Мараньян, Бразилия) (159 км)
Погода в Туриасу (Мараньян, Бразилия) (160 км)
Погода в Шападинье (Мараньян, Бразилия) (167 км)
Погода в Бакабале (Мараньян, Бразилия) (201 км)
Погода в Бакабале (Мараньян, Бразилия) (202 км)
Погода в Эсперантине (Пиауи, Бразилия) (265 км)
Погода в Кашиасе (Мараньян, Бразилия) (272 км)

Пояснения к столбцам:

Ветер - указаны скорость ветра в м/с - средняя за 10 мин, порывы в срок и между сроками (в фигурных скобках) и направление, откуда дует ветер: С - северный, СВ - северо-восточный, В - восточный, ЮВ - юго-восточный, Ю - южный, ЮЗ - юго-западный, З - западный, СЗ - северо-западный.
Видимость - горизонтальная дальность видимости в метрах или километрах. При видимости от 1 до 10 км при отсутствии осадков обычно наблюдается дымка, при ухудшении видимости до 1 км и менее - туман. В сухую погоду видимость может ухудшаться дымом, пылью или мглою.
Явления - указаны атмосферные явления, наблюдавшиеся в срок или в последний час перед сроком; фигурными скобками обозначены явления, наблюдавшиеся между сроками (за 1-3 часа до срока); квадратными скобками обозначены град или гололедные отложения с указанием их диаметра в мм.
Облачность - указаны через наклонную черту общая и нижняя облачность в баллах и высота нижней границы облаков в метрах; квадратными скобками обозначены формы облаков: Ci - перистые, Cs - перисто-слоистые, Cc - перисто-кучевые, Ac - высококучевые, As - высокослоистые, Sc - слоисто-кучевые, Ns - слоисто-дождевые, Cu - кучевые, Cb - кучево-дождевые. Подробнее классификацию облаков см. в Атласе облаков (PDF).
T - Температура воздуха - температура, измеренная на высоте 2 м над землей.
Td - Температура точки росы - температура, при понижении до которой содержащийся в воздухе водяной пар достигнет насыщения.
f - Относительная влажность воздуха - влажноcть воздуха, измеренная на высоте 2 м над землей.
Te - Эффективная температура - температура, которую ощущает одетый по сезону человек в тени. Характеристика душности погоды. При расчете учитывается влияние влажности воздуха и скорости ветра на теплоощущения человека.
Tes - Эффективная температура на солнце - температура, которую ощущает человек, с поправкой на солнечный нагрев. Характеристика знойности погоды. Зависит от высоты солнца над горизонтом, облачности и скорости ветра. Ночью, в пасмурную погоду, а также при ветре 12 м/с и более поправка равна нулю.
P - Атмосферное давление - приведенное к уровню моря атмосферное давление.
Po - Атмосферное давление - измеренное на уровне метеостанции атмосферное давление.
Tmin - Минимальная температура - минимум температуры воздуха на высоте 2 м над землей.
Tmax - Максимальная температура - максимум температуры воздуха на высоте 2 м над землей.
R - Количество осадков - Количество выпавших осадков за период времени, мм. При наведении курсора мыши на число - период времени, за который выпало указанное количество осадков.
R24 - Количество осадков - Количество выпавших осадков за 24 часа, мм.
S - Снежный покров - Высота снежного покрова, см. При наведении курсора мыши на число - состояние снежного покрова и степень покрытия местности в баллах.